Weather in Narimanova

Russia / Tyumen Oblast     57°22′24″N   65°05′44″E
temp.,
°C
wind,
m/s
gust,
m/s
humid.,
%
clouds,
%
prec.,
mm/h
press.,
hPa
HPBL,
m
7 may, fri
fri723:00+7wnw511500 0.0 10141048
02:00+6wnw513540 0.0 1015841
05:00+3wsw310680 0.0 1017256
08:00+9w48450 0.0 1018744
11:00+15w57325 0.0 10181298
14:00+19wsw57295 0.0 10181684
17:00+20w46315 0.0 10171911
20:00+16sw35475 0.0 101876
8 may, sat
sat823:00+12sw37525 0.0 1019103
02:00+11wsw375623 0.0 1019111
05:00+11sw255478 0.0 1019105
08:00+16sw234041 0.0 1019274
11:00+21ssw222940 0.0 10181263
14:00+22sse2224100 0.0 10172627
17:00+21ene1226100 0.0 10172069
20:00+18ene2237100 0.0 101719
9 may, sun
sun923:00+14sw1244100 0.0 101711
02:00+14ne224691 0.0 101721
05:00+13ne3863100 0.0 1017193
08:00+17ene365199 0.0 1018324
11:00+21ene4533100 0.0 10171439
14:00+23e4625100 0.0 10173162
17:00+22ne3632100 0.0 10172099
20:00+18ene3647100 0.1 1018132
10 may, mon
mon1023:00+16ene41156100 0.1 1019351
02:00+13ne3768100 0.0 1019130
05:00+11ne367377 0.0 1021118
08:00+16ne35556 0.0 1021412
11:00+20ne56386 0.0 10211769
14:00+22ne56200 0.0 10212017
17:00+21ne45250 0.0 10201997
20:00+17ene22420 0.0 102122
11 may, tue
tue1123:00+13ene11500 0.0 102110
02:00+11ese11570 0.0 102110
05:00+10sse00600 0.0 102110
08:00+17ese11425 0.0 1021275
11:00+21sse1131100 0.0 10211184
14:00+23sw2327100 0.0 10192636
17:00+21wnw6641100 0.0 1020958
20:00+17nnw585982 0.0 1021622